This demonstration page uses our WeatherBlox Daily Observations layout. Learn more.

Left ArrowRight Arrow

Hourly Observations for May 14, 2020

Temp ( °F °C ) Dew Point ( °F °C ) Humidity (%) Winds ( mph kmh ) Pressure ( in mb ) Visibility ( mi km ) Precip ( " mm )
12:18 am 00:18 Cloudy with Drizzle 55 12.8 55 12.8 100 100 SE 6 9 29.82 1010 3 4 0.01 0.25
12:50 am 00:50 Cloudy with Drizzle 55 13 55 13 100 100 SSE 8 13 29.83 1010 3 5 0.01 0.25
12:52 am 00:52 Cloudy with Drizzle 55 12.8 55 12.8 100 100 SSE 8 13 29.83 1010 3 5 0.01 0.25
1:52 am 01:52 Cloudy with Mist and Fog 56 13.3 55 12.8 97 97 SSE 6 9 29.81 1010 5 8 0.00 0.00
2:52 am 02:52 Cloudy with Mist and Fog 57 13.9 56 13.3 96 96 S 6 9 29.80 1009 4 6 0.00 0.00
3:32 am 03:32 Cloudy with Mist and Fog 57 13.9 56 13.3 96 96 Calm 29.79 1009 2 2 0.00 0.00
3:40 am 03:40 Cloudy with Mist and Fog 56 13.3 56 13.3 100 100 NW 5 7 29.78 1008 1 1 0.00 0.00
3:52 am 03:52 Mostly Cloudy with Fog 56 13.3 56 13.3 100 100 NW 3 6 29.78 1009 0 0 0.00 0.00
4:52 am 04:52 Mostly Cloudy with Fog 56 13.3 56 13.3 100 100 Calm 29.79 1009 1 2 0.00 0.00
5:52 am 05:52 Mostly Cloudy with Drizzle 56 13.3 56 13.3 100 100 NNW 7 11 29.80 1009 1 2 0.00 0.00
6:52 am 06:52 Mostly Cloudy with Drizzle 56 13.3 56 13.3 100 100 N 7 11 29.82 1010 1 2 0.00 0.00
7:52 am 07:52 Mostly Cloudy with Fog 56 13.3 56 13.3 100 100 NNW 8 13 29.83 1010 0 0 0.00 0.00
8:21 am 08:21 Cloudy with Light Rain 57 13.9 56 13.3 96 96 N 9 15 29.83 1010 1 1 0.01 0.25
8:40 am 08:40 Cloudy with Light Rain 57 13.9 56 13.3 96 96 N 12 19 29.84 1010 1 2 0.01 0.25
8:52 am 08:52 Cloudy with Light Rain 57 13.9 56 13.3 96 96 N 10 17 29.84 1010 1 2 0.01 0.25
9:12 am 09:12 Cloudy with Mist and Fog 56 13.3 56 13.3 100 100 N 10 17 29.85 1011 3 4 0.00 0.00
9:26 am 09:26 Cloudy with Mist and Fog 57 13.9 56 13.3 96 96 N 14 22 29.85 1011 3 5 0.00 0.00
9:52 am 09:52 Cloudy with Mist and Fog 56 13.3 56 13.3 100 100 N 12 19 29.85 1011 2 3 0.00 0.00
10:52 am 10:52 Cloudy with Mist and Fog 58 14.4 56 13.3 93 93 N 8 13 29.83 1010 2 3 0.00 0.00
11:52 am 11:52 Cloudy with Drizzle 59 15 57 13.9 93 93 NE 6 9 29.84 1011 2 3 0.00 0.00
12:02 pm 12:02 Cloudy with Drizzle 59 15 58 14.4 96 96 NNE 5 7 29.83 1010 2 2 0.00 0.00
12:43 pm 12:43 Cloudy with Mist and Fog 61 16.1 58 14.4 90 90 NNE 6 9 29.82 1010 2 2 0.01 0.25
12:52 pm 12:52 Cloudy with Mist and Fog 61 16.1 59 15 93 93 ENE 5 7 29.82 1010 3 5 0.01 0.25
1:52 pm 13:52 Cloudy 65 18.3 60 15.6 84 84 Calm 29.79 1009 8 13 0.00 0.00
2:52 pm 14:52 Mostly Cloudy with Light Rain 66 18.9 61 16.1 84 84 NW 3 6 29.78 1009 8 13 0.00 0.00
3:11 pm 15:11 Cloudy 67 19.4 61 16.1 81 81 NNW 6 9 29.77 1008 8 13 0.00 0.00
3:52 pm 15:52 Mostly Cloudy 69 20.6 61 16.1 76 76 NNE 3 6 29.77 1008 8 13 0.00 0.00
4:38 pm 16:38 Cloudy with Light Rain 67 19.4 62 16.7 84 84 NNW 3 6 29.76 1008 8 13 0.00 0.00
4:52 pm 16:52 Cloudy with Light Rain 67 19.4 62 16.7 84 84 N 6 9 29.77 1008 9 14 0.00 0.00
5:52 pm 17:52 Mostly Cloudy 68 20 62 16.7 81 81 Calm 29.77 1008 10 16 0.01 0.25
6:52 pm 18:52 Mostly Cloudy 70 21.1 62 16.7 76 76 Calm 29.76 1008 10 16 0.00 0.00
7:52 pm 19:52 Mostly Cloudy 69 20.6 63 17.2 81 81 Calm 29.76 1008 10 16 0.00 0.00
8:52 pm 20:52 Mostly Cloudy with Fog 64 17.8 62 16.7 93 93 SE 3 6 29.77 1008 8 13 0.00 0.00
9:35 pm 21:35 Mostly Cloudy with Mist and Fog 62 16.7 61 16.1 96 96 Calm 29.79 1009 6 10 0.00 0.00
9:52 pm 21:52 Partly Cloudy with Fog 61 16.1 61 16.1 100 100 SSE 3 6 29.80 1009 7 11 0.00 0.00
10:48 pm 22:48 Partly Cloudy with Fog 57 14 57 14 100 100 WNW 5 7 29.82 1010 1 2 0.00 0.00
10:52 pm 22:52 Partly Cloudy with Mist and Fog 57 13.9 56 13.3 96 96 NW 5 7 29.81 1010 6 10 0.00 0.00
11:52 pm 23:52 Mostly Clear with Patchy Fog 57 13.9 57 13.9 100 100 N 5 7 29.85 1011 5 8 0.00 0.00

Powered by AerisWeather